| time (UTC) | temp C | wind direction | speed KPH | gust KPH | rain 1hr cm | rain 24hr cm | rain mn cm | humidity % | barometer mb |
| 20260906154627 | 28 | 269 | 1.6 | 3.2 | 0.00 | 0.00 | 0.00 | 69 | 995.3 |
| 20260906154126 | 28 | 293 | 0.0 | 3.2 | 0.00 | 0.00 | 0.00 | 74 | 994.9 |
| 20260906153625 | 27 | 253 | 3.2 | 3.2 | 0.00 | 0.00 | 0.00 | 72 | 994.9 |
| 20260906153120 | 27 | 271 | 0.0 | 0.0 | 0.00 | 0.00 | 0.00 | 74 | 994.6 |
| 20260906152615 | 27 | 297 | 0.0 | 3.2 | 0.00 | 0.00 | 0.00 | 74 | 994.5 |
| 20260906152115 | 27 | 206 | 0.0 | 1.6 | 0.00 | 0.00 | 0.00 | 74 | 994.6 |
| 20260906151609 | 27 | 151 | 0.0 | 0.0 | 0.00 | 0.00 | 0.00 | 76 | 994.6 |
| 20260906151106 | 27 | 164 | 1.6 | 6.4 | 0.00 | 0.00 | 0.00 | 75 | 994.5 |
| 20260906150600 | 27 | 128 | 0.0 | 1.6 | 0.00 | 0.00 | 0.00 | 78 | 994.1 |
| 20260906150056 | 26 | 284 | 0.0 | 0.0 | 0.00 | 0.00 | 0.00 | 76 | 994.1 |
| 20260906145554 | 26 | 236 | 1.6 | 1.6 | 0.00 | 0.00 | 0.00 | 76 | 994.1 |
| 20260906145050 | 26 | 249 | 0.0 | 3.2 | 0.00 | 0.00 | 0.00 | 79 | 994.3 |
| 20260906144544 | 26 | 302 | 0.0 | 1.6 | 0.00 | 0.00 | 0.00 | 79 | 994.2 |
| 20260906144039 | 25 | 274 | 0.0 | 1.6 | 0.00 | 0.00 | 0.00 | 80 | 994.2 |
| 20260906143534 | 25 | 281 | 1.6 | 3.2 | 0.00 | 0.00 | 0.00 | 80 | 994.3 |
| 20260906143032 | 25 | 279 | 0.0 | 4.8 | 0.00 | 0.00 | 0.00 | 81 | 994.5 |
| 20260906142530 | 25 | 271 | 1.6 | 1.6 | 0.00 | 0.00 | 0.00 | 82 | 994.0 |
| 20260906142026 | 25 | 275 | 0.0 | 0.0 | 0.00 | 0.00 | 0.00 | 83 | 994.1 |
| 20260906141525 | 25 | 274 | 0.0 | 0.0 | 0.00 | 0.00 | 0.00 | 83 | 994.1 |
| 20260906141021 | 25 | 274 | 1.6 | 1.6 | 0.00 | 0.00 | 0.00 | 81 | 994.0 |
| 20260906140520 | 25 | 274 | 0.0 | 0.0 | 0.00 | 0.00 | 0.00 | 82 | 993.9 |
| 20260906140019 | 25 | 274 | 0.0 | 1.6 | 0.00 | 0.00 | 0.00 | 83 | 994.2 |
| 20260906135517 | 24 | 275 | 0.0 | 1.6 | 0.00 | 0.00 | 0.00 | 83 | 994.0 |
| 20260906135013 | 24 | 275 | 0.0 | 0.0 | 0.00 | 0.00 | 0.00 | 83 | 994.0 |
| 20260906134508 | 24 | 275 | 0.0 | 0.0 | 0.00 | 0.00 | 0.00 | 85 | 994.0 |
| 20260906134008 | 24 | 275 | 0.0 | 0.0 | 0.00 | 0.00 | 0.00 | 85 | 994.2 |
| 20260906133504 | 24 | 276 | 0.0 | 0.0 | 0.00 | 0.00 | 0.00 | 86 | 994.3 |
| 20260906132959 | 24 | 276 | 0.0 | 0.0 | 0.00 | 0.00 | 0.00 | 84 | 994.1 |
| 20260906132454 | 24 | 276 | 0.0 | 0.0 | 0.00 | 0.00 | 0.00 | 85 | 994.2 |
| 20260906131949 | 23 | 280 | 0.0 | 3.2 | 0.00 | 0.00 | 0.00 | 85 | 994.1 |
| 20260906131445 | 23 | 290 | 0.0 | 4.8 | 0.00 | 0.00 | 0.00 | 87 | 994.4 |
| 20260906130940 | 23 | 331 | 0.0 | 1.6 | 0.00 | 0.00 | 0.00 | 86 | 994.2 |
| 20260906130439 | 23 | 276 | 0.0 | 1.6 | 0.00 | 0.00 | 0.00 | 87 | 994.1 |
| 20260906125934 | 23 | 275 | 1.6 | 1.6 | 0.00 | 0.00 | 0.00 | 87 | 994.2 |
| 20260906125431 | 23 | 277 | 0.0 | 1.6 | 0.00 | 0.00 | 0.00 | 88 | 994.6 |
| 20260906124931 | 23 | 278 | 0.0 | 3.2 | 0.00 | 0.00 | 0.00 | 88 | 994.3 |
| 20260906124428 | 23 | 270 | 0.0 | 1.6 | 0.00 | 0.00 | 0.00 | 89 | 994.1 |
| 20260906123927 | 23 | 283 | 0.0 | 3.2 | 0.00 | 0.00 | 0.00 | 89 | 994.0 |
| 20260906123426 | 23 | 289 | 1.6 | 1.6 | 0.00 | 0.00 | 0.00 | 89 | 994.0 |
| 20260906122921 | 23 | 274 | 1.6 | 1.6 | 0.00 | 0.00 | 0.00 | 91 | 994.0 |
| 20260906122421 | 23 | 275 | 0.0 | 1.6 | 0.00 | 0.00 | 0.00 | 91 | 993.9 |
| 20260906121919 | 23 | 278 | 0.0 | 1.6 | 0.00 | 0.00 | 0.00 | 91 | 993.8 |
| 20260906121414 | 23 | 278 | 0.0 | 1.6 | 0.00 | 0.00 | 0.00 | 92 | 993.5 |
| 20260906120911 | 23 | 278 | 0.0 | 1.6 | 0.00 | 0.00 | 0.00 | 92 | 993.5 |
| 20260906120406 | 23 | 278 | 1.6 | 1.6 | 0.00 | 0.00 | 0.00 | 92 | 993.6 |
| 20260906115902 | 23 | 269 | 0.0 | 0.0 | 0.00 | 0.00 | 0.00 | 92 | 993.6 |
| 20260906115357 | 23 | 270 | 0.0 | 0.0 | 0.00 | 0.00 | 0.00 | 92 | 993.6 |
| 20260906114856 | 23 | 264 | 0.0 | 1.6 | 0.00 | 0.00 | 0.00 | 92 | 993.5 |
| 20260906114352 | 23 | 264 | 0.0 | 0.0 | 0.00 | 0.00 | 0.00 | 91 | 993.2 |
| 20260906113847 | 23 | 264 | 0.0 | 0.0 | 0.00 | 0.00 | 0.00 | 91 | 993.2 |
| 20260906113346 | 23 | 264 | 0.0 | 0.0 | 0.00 | 0.00 | 0.00 | 91 | 993.1 |
| 20260906112841 | 23 | 264 | 0.0 | 0.0 | 0.00 | 0.00 | 0.00 | 90 | 993.1 |
| 20260906112337 | 23 | 265 | 0.0 | 1.6 | 0.00 | 0.00 | 0.00 | 91 | 993.4 |
| 20260906111832 | 23 | 265 | 0.0 | 0.0 | 0.00 | 0.00 | 0.00 | 91 | 993.1 |
| 20260906111331 | 23 | 265 | 1.6 | 1.6 | 0.00 | 0.00 | 0.00 | 91 | 993.2 |
| 20260906110827 | 23 | 265 | 0.0 | 1.6 | 0.00 | 0.00 | 0.00 | 91 | 993.2 |
| 20260906110323 | 23 | 264 | 0.0 | 0.0 | 0.00 | 0.00 | 0.00 | 90 | 993.1 |
| 20260906105821 | 24 | 264 | 0.0 | 0.0 | 0.00 | 0.00 | 0.00 | 89 | 993.3 |
| 20260906105317 | 24 | 264 | 0.0 | 0.0 | 0.00 | 0.00 | 0.00 | 88 | 993.2 |
| 20260906104813 | 24 | 264 | 0.0 | 0.0 | 0.00 | 0.00 | 0.00 | 87 | 993.1 |
| 20260906104312 | 24 | 172 | 1.6 | 1.6 | 0.00 | 0.00 | 0.00 | 87 | 993.1 |
| 20260906103810 | 24 | 260 | 0.0 | 1.6 | 0.00 | 0.00 | 0.00 | 88 | 993.0 |
| 20260906103309 | 24 | 228 | 0.0 | 0.0 | 0.00 | 0.00 | 0.00 | 87 | 993.2 |
| 20260906102805 | 24 | 228 | 0.0 | 0.0 | 0.00 | 0.00 | 0.00 | 87 | 993.2 |
| 20260906102306 | 24 | 223 | 1.6 | 1.6 | 0.00 | 0.00 | 0.00 | 88 | 992.9 |
| 20260906101800 | 24 | 222 | 0.0 | 1.6 | 0.00 | 0.00 | 0.00 | 89 | 992.8 |
| 20260906101259 | 24 | 245 | 1.6 | 1.6 | 0.00 | 0.00 | 0.00 | 88 | 992.8 |
| 20260906100755 | 24 | 318 | 0.0 | 0.0 | 0.00 | 0.00 | 0.00 | 89 | 992.7 |
| 20260906100254 | 24 | 334 | 0.0 | 0.0 | 0.00 | 0.00 | 0.00 | 90 | 992.7 |
| 20260906095750 | 25 | 334 | 1.6 | 1.6 | 0.00 | 0.00 | 0.00 | 90 | 992.6 |
| 20260906095245 | 25 | 292 | 0.0 | 1.6 | 0.00 | 0.00 | 0.00 | 90 | 992.8 |
| 20260906094744 | 25 | 293 | 0.0 | 1.6 | 0.00 | 0.00 | 0.00 | 90 | 992.5 |
| 20260906094239 | 25 | 211 | 0.0 | 0.0 | 0.00 | 0.00 | 0.00 | 89 | 992.6 |
| 20260906093736 | 25 | 211 | 0.0 | 0.0 | 0.00 | 0.00 | 0.00 | 90 | 992.5 |
| 20260906093231 | 25 | 104 | 0.0 | 1.6 | 0.00 | 0.00 | 0.00 | 90 | 992.5 |
| 20260906092726 | 25 | 92 | 0.0 | 1.6 | 0.00 | 0.00 | 0.00 | 90 | 992.5 |
| 20260906092226 | 25 | 250 | 1.6 | 1.6 | 0.00 | 0.00 | 0.00 | 90 | 992.4 |
| 20260906091722 | 25 | 271 | 0.0 | 1.6 | 0.00 | 0.00 | 0.00 | 90 | 992.6 |
| 20260906091218 | 25 | 237 | 0.0 | 1.6 | 0.00 | 0.00 | 0.00 | 89 | 992.6 |
| 20260906090714 | 25 | 241 | 0.0 | 0.0 | 0.00 | 0.00 | 0.00 | 89 | 992.6 |
| 20260906090213 | 25 | 242 | 0.0 | 3.2 | 0.00 | 0.00 | 0.00 | 89 | 992.4 |
| 20260906085713 | 25 | 186 | 1.6 | 3.2 | 0.00 | 0.00 | 0.00 | 89 | 992.3 |
| 20260906085212 | 25 | 164 | 0.0 | 1.6 | 0.00 | 0.00 | 0.00 | 89 | 992.2 |
| 20260906084707 | 25 | 163 | 0.0 | 1.6 | 0.00 | 0.00 | 0.00 | 89 | 992.0 |
| 20260906084206 | 25 | 137 | 0.0 | 0.0 | 0.00 | 0.00 | 0.00 | 89 | 992.2 |
| 20260906083701 | 25 | 137 | 0.0 | 0.0 | 0.00 | 0.00 | 0.00 | 89 | 992.1 |
| 20260906083157 | 25 | 166 | 1.6 | 1.6 | 0.00 | 0.00 | 0.00 | 88 | 992.0 |
| 20260906082652 | 25 | 140 | 0.0 | 0.0 | 0.00 | 0.00 | 0.00 | 88 | 992.0 |
| 20260906082147 | 25 | 125 | 0.0 | 1.6 | 0.00 | 0.00 | 0.00 | 89 | 991.9 |
| 20260906081643 | 25 | 153 | 0.0 | 1.6 | 0.00 | 0.00 | 0.00 | 89 | 991.8 |
| 20260906081138 | 25 | 150 | 0.0 | 0.0 | 0.00 | 0.00 | 0.00 | 88 | 991.6 |
| 20260906080635 | 25 | 152 | 0.0 | 1.6 | 0.00 | 0.00 | 0.00 | 88 | 992.0 |
| 20260906080131 | 25 | 142 | 0.0 | 1.6 | 0.00 | 0.00 | 0.00 | 88 | 991.7 |
| 20260906075630 | 25 | 140 | 0.0 | 0.0 | 0.00 | 0.00 | 0.00 | 89 | 991.8 |
| 20260906075125 | 25 | 140 | 0.0 | 0.0 | 0.00 | 0.00 | 0.00 | 88 | 991.8 |
| 20260906074620 | 25 | 139 | 0.0 | 3.2 | 0.00 | 0.00 | 0.00 | 89 | 991.9 |
| 20260906074119 | 25 | 95 | 0.0 | 1.6 | 0.00 | 0.00 | 0.00 | 89 | 991.8 |
| 20260906073614 | 25 | 95 | 1.6 | 1.6 | 0.00 | 0.00 | 0.00 | 89 | 991.8 |
| 20260906073109 | 25 | 94 | 0.0 | 0.0 | 0.00 | 0.00 | 0.00 | 89 | 991.9 |
| 20260906072604 | 25 | 95 | 1.6 | 1.6 | 0.00 | 0.00 | 0.00 | 88 | 992.0 |
| 20260906072100 | 25 | 95 | 0.0 | 0.0 | 0.00 | 0.00 | 0.00 | 88 | 992.1 |
| 20260906071557 | 25 | 95 | 0.0 | 0.0 | 0.00 | 0.00 | 0.00 | 87 | 992.1 |
| 20260906071051 | 26 | 95 | 0.0 | 0.0 | 0.00 | 0.00 | 0.00 | 87 | 992.1 |
| 20260906070548 | 26 | 95 | 0.0 | 0.0 | 0.00 | 0.00 | 0.00 | 85 | 991.8 |
| 20260906070043 | 26 | 95 | 0.0 | 0.0 | 0.00 | 0.00 | 0.00 | 83 | 992.1 |
| 20260906065542 | 26 | 95 | 0.0 | 0.0 | 0.00 | 0.00 | 0.00 | 84 | 992.0 |
| 20260906065038 | 26 | 95 | 0.0 | 0.0 | 0.00 | 0.00 | 0.00 | 84 | 992.0 |
| 20260906064534 | 26 | 95 | 0.0 | 0.0 | 0.00 | 0.00 | 0.00 | 84 | 992.1 |
| 20260906064029 | 26 | 95 | 0.0 | 0.0 | 0.00 | 0.00 | 0.00 | 83 | 992.3 |
| 20260906063524 | 26 | 95 | 0.0 | 0.0 | 0.00 | 0.00 | 0.00 | 84 | 992.1 |
| 20260906063020 | 26 | 95 | 0.0 | 0.0 | 0.00 | 0.00 | 0.00 | 84 | 992.3 |
| 20260906062515 | 26 | 95 | 0.0 | 0.0 | 0.00 | 0.00 | 0.00 | 81 | 992.2 |
| 20260906062009 | 26 | 95 | 0.0 | 0.0 | 0.00 | 0.00 | 0.00 | 81 | 992.4 |
| 20260906061505 | 26 | 95 | 0.0 | 0.0 | 0.00 | 0.00 | 0.00 | 82 | 992.3 |
| 20260906060959 | 26 | 95 | 0.0 | 0.0 | 0.00 | 0.00 | 0.00 | 81 | 992.0 |
| 20260906060456 | 26 | 95 | 0.0 | 0.0 | 0.00 | 0.00 | 0.00 | 80 | 992.2 |
| 20260906055953 | 26 | 95 | 0.0 | 0.0 | 0.00 | 0.00 | 0.00 | 80 | 992.4 |
| 20260906055448 | 26 | 95 | 0.0 | 0.0 | 0.00 | 0.00 | 0.00 | 80 | 992.4 |
| 20260906054943 | 26 | 95 | 0.0 | 0.0 | 0.00 | 0.00 | 0.00 | 79 | 992.1 |
| 20260906054443 | 27 | 95 | 0.0 | 0.0 | 0.00 | 0.00 | 0.00 | 79 | 992.3 |
| 20260906053939 | 27 | 95 | 0.0 | 1.6 | 0.00 | 0.00 | 0.00 | 78 | 992.2 |
| 20260906053435 | 27 | 95 | 0.0 | 0.0 | 0.00 | 0.00 | 0.00 | 78 | 992.2 |
| 20260906052931 | 26 | 95 | 0.0 | 0.0 | 0.00 | 0.00 | 0.00 | 78 | 992.2 |
| 20260906052427 | 26 | 95 | 0.0 | 0.0 | 0.00 | 0.00 | 0.00 | 78 | 992.3 |
| 20260906051923 | 26 | 95 | 0.0 | 0.0 | 0.00 | 0.00 | 0.00 | 78 | 992.2 |
| 20260906051424 | 27 | 95 | 0.0 | 0.0 | 0.00 | 0.00 | 0.00 | 78 | 992.1 |
| 20260906050919 | 27 | 95 | 0.0 | 0.0 | 0.00 | 0.00 | 0.00 | 79 | 992.1 |
| 20260906050419 | 27 | 95 | 0.0 | 0.0 | 0.00 | 0.00 | 0.00 | 78 | 992.1 |
| 20260906045918 | 27 | 95 | 0.0 | 0.0 | 0.00 | 0.71 | 0.71 | 75 | 991.8 |
| 20260906045417 | 27 | 95 | 0.0 | 0.0 | 0.00 | 0.71 | 0.71 | 76 | 992.2 |
| 20260906044913 | 27 | 95 | 0.0 | 0.0 | 0.00 | 0.71 | 0.71 | 75 | 992.1 |
| 20260906044414 | 27 | 95 | 0.0 | 0.0 | 0.00 | 0.71 | 0.71 | 75 | 992.0 |
| 20260906043909 | 27 | 95 | 0.0 | 0.0 | 0.00 | 0.71 | 0.71 | 74 | 992.0 |
| 20260906043405 | 27 | 95 | 0.0 | 0.0 | 0.00 | 0.71 | 0.71 | 74 | 992.0 |
| 20260906042900 | 27 | 95 | 0.0 | 0.0 | 0.00 | 0.71 | 0.71 | 75 | 992.1 |
| 20260906042359 | 27 | 95 | 0.0 | 0.0 | 0.00 | 0.71 | 0.71 | 74 | 991.8 |
| 20260906041855 | 27 | 95 | 0.0 | 0.0 | 0.00 | 0.71 | 0.71 | 76 | 991.7 |
| 20260906041350 | 27 | 95 | 0.0 | 0.0 | 0.00 | 0.71 | 0.71 | 75 | 992.1 |
| 20260906040845 | 27 | 95 | 0.0 | 0.0 | 0.00 | 0.71 | 0.71 | 75 | 991.7 |
| 20260906040340 | 27 | 95 | 0.0 | 0.0 | 0.00 | 0.71 | 0.71 | 74 | 991.8 |
| 20260906035836 | 27 | 95 | 0.0 | 0.0 | 0.00 | 0.71 | 0.71 | 74 | 991.5 |
| 20260906035331 | 27 | 95 | 0.0 | 0.0 | 0.00 | 0.71 | 0.71 | 74 | 991.8 |
| 20260906034827 | 27 | 95 | 0.0 | 0.0 | 0.00 | 0.71 | 0.71 | 72 | 991.6 |
| 20260906034327 | 27 | 95 | 0.0 | 0.0 | 0.00 | 0.71 | 0.71 | 71 | 991.6 |
| 20260906033823 | 27 | 95 | 0.0 | 0.0 | 0.00 | 0.71 | 0.71 | 71 | 991.8 |
| 20260906033321 | 27 | 95 | 0.0 | 0.0 | 0.00 | 0.71 | 0.71 | 72 | 991.5 |
| 20260906032818 | 27 | 95 | 0.0 | 0.0 | 0.00 | 0.71 | 0.71 | 71 | 991.7 |
| 20260906032314 | 27 | 95 | 0.0 | 0.0 | 0.00 | 0.71 | 0.71 | 70 | 991.7 |
| 20260906031809 | 27 | 95 | 0.0 | 0.0 | 0.00 | 0.71 | 0.71 | 71 | 991.5 |
| 20260906031304 | 27 | 95 | 0.0 | 0.0 | 0.00 | 0.71 | 0.71 | 70 | 991.6 |
| 20260906030804 | 27 | 95 | 0.0 | 0.0 | 0.00 | 0.71 | 0.71 | 70 | 991.4 |
| 20260906030259 | 28 | 95 | 0.0 | 0.0 | 0.00 | 0.71 | 0.71 | 70 | 991.5 |
| 20260906025759 | 28 | 95 | 0.0 | 0.0 | 0.00 | 0.71 | 0.71 | 68 | 991.4 |
| 20260906025253 | 28 | 95 | 0.0 | 0.0 | 0.00 | 0.71 | 0.71 | 68 | 991.3 |
| 20260906024752 | 28 | 95 | 0.0 | 0.0 | 0.00 | 0.71 | 0.71 | 67 | 991.3 |
| 20260906024251 | 28 | 95 | 0.0 | 0.0 | 0.00 | 0.71 | 0.71 | 67 | 991.4 |
| 20260906023747 | 28 | 95 | 0.0 | 0.0 | 0.00 | 0.71 | 0.71 | 66 | 991.3 |
| 20260906023242 | 28 | 95 | 0.0 | 0.0 | 0.00 | 0.71 | 0.71 | 67 | 991.2 |
| 20260906022738 | 28 | 95 | 0.0 | 0.0 | 0.00 | 0.71 | 0.71 | 66 | 990.9 |
| 20260906022233 | 28 | 95 | 0.0 | 1.6 | 0.00 | 0.71 | 0.71 | 67 | 990.9 |
| 20260906021729 | 28 | 95 | 0.0 | 0.0 | 0.00 | 0.71 | 0.71 | 66 | 990.9 |
| 20260906021228 | 28 | 86 | 0.0 | 0.0 | 0.00 | 0.71 | 0.71 | 69 | 990.8 |
| 20260906020723 | 28 | 86 | 0.0 | 0.0 | 0.00 | 0.71 | 0.71 | 67 | 990.6 |
| 20260906020217 | 28 | 86 | 0.0 | 0.0 | 0.00 | 0.71 | 0.71 | 67 | 990.3 |
| 20260906015712 | 28 | 86 | 0.0 | 0.0 | 0.00 | 0.71 | 0.71 | 67 | 990.3 |
| 20260906015210 | 28 | 86 | 0.0 | 0.0 | 0.00 | 0.71 | 0.71 | 67 | 990.3 |
| 20260906014711 | 29 | 86 | 0.0 | 0.0 | 0.00 | 0.71 | 0.71 | 67 | 990.4 |
| 20260906014207 | 29 | 86 | 0.0 | 0.0 | 0.00 | 0.71 | 0.71 | 66 | 990.2 |
| 20260906013703 | 29 | 86 | 0.0 | 0.0 | 0.00 | 0.71 | 0.71 | 65 | 990.3 |
| 20260906013203 | 29 | 86 | 0.0 | 0.0 | 0.00 | 0.71 | 0.71 | 65 | 990.4 |
| 20260906012658 | 29 | 86 | 0.0 | 0.0 | 0.00 | 0.71 | 0.71 | 64 | 990.1 |
| 20260906012157 | 29 | 86 | 0.0 | 0.0 | 0.00 | 0.71 | 0.71 | 65 | 990.1 |
| 20260906011653 | 30 | 86 | 0.0 | 0.0 | 0.00 | 0.71 | 0.71 | 64 | 990.1 |
| 20260906011148 | 30 | 86 | 0.0 | 0.0 | 0.00 | 0.71 | 0.71 | 62 | 990.1 |
| 20260906010643 | 30 | 86 | 0.0 | 0.0 | 0.00 | 0.71 | 0.71 | 63 | 990.1 |
| 20260906010139 | 30 | 86 | 0.0 | 0.0 | 0.00 | 0.71 | 0.71 | 63 | 990.0 |
| 20260906005639 | 30 | 86 | 0.0 | 0.0 | 0.00 | 0.71 | 0.71 | 62 | 990.1 |
| 20260906005138 | 30 | 86 | 0.0 | 0.0 | 0.00 | 0.71 | 0.71 | 61 | 990.1 |
| 20260906004637 | 30 | 86 | 0.0 | 0.0 | 0.00 | 0.71 | 0.71 | 60 | 989.9 |
| 20260906004132 | 30 | 86 | 0.0 | 0.0 | 0.00 | 0.71 | 0.71 | 60 | 990.0 |
| 20260906003627 | 31 | 86 | 0.0 | 0.0 | 0.00 | 0.71 | 0.71 | 60 | 990.0 |
| 20260906003123 | 31 | 86 | 0.0 | 0.0 | 0.00 | 0.71 | 0.71 | 59 | 990.0 |
| 20260906002618 | 31 | 86 | 0.0 | 0.0 | 0.00 | 0.71 | 0.71 | 58 | 989.8 |
| 20260906002113 | 31 | 87 | 0.0 | 0.0 | 0.00 | 0.71 | 0.71 | 58 | 990.0 |
| 20260906001609 | 32 | 87 | 0.0 | 0.0 | 0.00 | 0.71 | 0.71 | 57 | 989.8 |
| 20260906001108 | 32 | 87 | 0.0 | 0.0 | 0.00 | 0.71 | 0.71 | 56 | 990.0 |
| 20260906000605 | 32 | 87 | 0.0 | 0.0 | 0.00 | 0.71 | 0.71 | 57 | 990.0 |
| 20260906000059 | 33 | 87 | 0.0 | 0.0 | 0.00 | 0.71 | 0.71 | 57 | 990.2 |
| 20260905235558 | 33 | 87 | 0.0 | 0.0 | 0.00 | 0.71 | 0.71 | 55 | 990.0 |
| 20260905235054 | 34 | 87 | 0.0 | 0.0 | 0.00 | 0.71 | 0.71 | 54 | 990.0 |
| 20260905234549 | 34 | 87 | 0.0 | 0.0 | 0.00 | 0.71 | 0.71 | 53 | 989.9 |
| 20260905234044 | 35 | 87 | 0.0 | 0.0 | 0.00 | 0.71 | 0.71 | 54 | 989.9 |
| 20260905233544 | 35 | 87 | 0.0 | 0.0 | 0.00 | 0.71 | 0.71 | 51 | 989.7 |
| 20260905233044 | 35 | 87 | 0.0 | 1.6 | 0.00 | 0.71 | 0.71 | 51 | 990.1 |
| 20260905232540 | 35 | 87 | 0.0 | 0.0 | 0.00 | 0.71 | 0.71 | 51 | 990.1 |
| 20260905232035 | 35 | 87 | 0.0 | 0.0 | 0.00 | 0.71 | 0.71 | 50 | 990.1 |
| 20260905231530 | 35 | 87 | 1.6 | 1.6 | 0.00 | 0.71 | 0.71 | 50 | 990.0 |
| 20260905231026 | 36 | 8 | 0.0 | 1.6 | 0.00 | 0.71 | 0.71 | 47 | 990.0 |
| 20260905230526 | 36 | 346 | 0.0 | 1.6 | 0.00 | 0.71 | 0.71 | 48 | 990.0 |
| 20260905230024 | 36 | 358 | 6.4 | 6.4 | 0.00 | 0.71 | 0.71 | 46 | 990.0 |
| 20260905225519 | 36 | 11 | 1.6 | 4.8 | 0.00 | 0.71 | 0.71 | 48 | 989.9 |
| 20260905225014 | 35 | 26 | 0.0 | 1.6 | 0.00 | 0.71 | 0.71 | 51 | 989.9 |
| 20260905224509 | 34 | 16 | 3.2 | 6.4 | 0.00 | 0.71 | 0.71 | 50 | 990.0 |
| 20260905224008 | 33 | 189 | 1.6 | 1.6 | 0.00 | 0.71 | 0.71 | 57 | 989.8 |
| 20260905223506 | 33 | 192 | 0.0 | 0.0 | 0.00 | 0.71 | 0.71 | 54 | 989.7 |
| 20260905223001 | 33 | 192 | 0.0 | 0.0 | 0.00 | 0.71 | 0.71 | 54 | 989.5 |
| 20260905222501 | 34 | 192 | 0.0 | 0.0 | 0.00 | 0.71 | 0.71 | 52 | 989.9 |
| 20260905221956 | 36 | 192 | 0.0 | 0.0 | 0.00 | 0.71 | 0.71 | 49 | 989.9 |
| 20260905221453 | 37 | 130 | 0.0 | 0.0 | 0.00 | 0.71 | 0.71 | 46 | 989.5 |
| 20260905220949 | 37 | 130 | 0.0 | 1.6 | 0.00 | 0.71 | 0.71 | 48 | 989.8 |
| 20260905220445 | 37 | 114 | 0.0 | 3.2 | 0.00 | 0.71 | 0.71 | 48 | 989.9 |
| 20260905215944 | 37 | 41 | 1.6 | 1.6 | 0.00 | 0.71 | 0.71 | 47 | 989.8 |
| 20260905215440 | 37 | 25 | 1.6 | 1.6 | 0.00 | 0.71 | 0.71 | 49 | 990.1 |
| 20260905214936 | 38 | 6 | 0.0 | 4.8 | 0.00 | 0.71 | 0.71 | 44 | 989.9 |
| 20260905214432 | 39 | 340 | 1.6 | 6.4 | 0.00 | 0.71 | 0.71 | 42 | 989.9 |
| 20260905213931 | 40 | 234 | 1.6 | 1.6 | 0.00 | 0.71 | 0.71 | 40 | 989.9 |
| 20260905213428 | 40 | 332 | 1.6 | 1.6 | 0.00 | 0.71 | 0.71 | 38 | 989.9 |
| 20260905212923 | 40 | 309 | 0.0 | 1.6 | 0.00 | 0.71 | 0.71 | 32 | 989.6 |
| 20260905212418 | 40 | 309 | 0.0 | 3.2 | 0.00 | 0.71 | 0.71 | 32 | 989.8 |
| 20260905211917 | 39 | 19 | 1.6 | 3.2 | 0.00 | 0.71 | 0.71 | 38 | 989.8 |
| 20260905211413 | 39 | 359 | 0.0 | 3.2 | 0.00 | 0.71 | 0.71 | 41 | 989.8 |
| 20260905210909 | 39 | 261 | 1.6 | 1.6 | 0.00 | 0.71 | 0.71 | 41 | 989.8 |
| 20260905210409 | 39 | 347 | 1.6 | 1.6 | 0.00 | 0.71 | 0.71 | 36 | 989.8 |
| 20260905205908 | 40 | 289 | 0.0 | 1.6 | 0.00 | 0.71 | 0.71 | 37 | 989.8 |
| 20260905205403 | 39 | 290 | 0.0 | 0.0 | 0.00 | 0.71 | 0.71 | 38 | 990.0 |
| 20260905204901 | 39 | 289 | 1.6 | 1.6 | 0.00 | 0.71 | 0.71 | 33 | 990.3 |
| 20260905204358 | 38 | 301 | 3.2 | 3.2 | 0.00 | 0.71 | 0.71 | 36 | 990.4 |
| 20260905203856 | 38 | 286 | 1.6 | 1.6 | 0.00 | 0.71 | 0.71 | 37 | 990.4 |
| 20260905203352 | 38 | 300 | 1.6 | 1.6 | 0.00 | 0.71 | 0.71 | 38 | 990.3 |
| 20260905202848 | 37 | 249 | 0.0 | 1.6 | 0.00 | 0.71 | 0.71 | 39 | 990.4 |
| 20260905202349 | 37 | 267 | 0.0 | 1.6 | 0.00 | 0.71 | 0.71 | 46 | 990.7 |
| 20260905201845 | 37 | 352 | 1.6 | 1.6 | 0.00 | 0.71 | 0.71 | 48 | 990.7 |
| 20260905201340 | 37 | 126 | 0.0 | 0.0 | 0.00 | 0.71 | 0.71 | 47 | 990.5 |
| 20260905200839 | 38 | 128 | 0.0 | 3.2 | 0.00 | 0.71 | 0.71 | 38 | 990.7 |
| 20260905200336 | 37 | 232 | 0.0 | 1.6 | 0.00 | 0.71 | 0.71 | 40 | 990.7 |
| 20260905195833 | 36 | 252 | 0.0 | 3.2 | 0.00 | 0.71 | 0.71 | 45 | 990.7 |
| 20260905195329 | 35 | 0 | 0.0 | 1.6 | 0.00 | 0.71 | 0.71 | 48 | 990.9 |
| 20260905194825 | 35 | 314 | 1.6 | 1.6 | 0.00 | 0.71 | 0.71 | 56 | 990.9 |
| 20260905194324 | 33 | 280 | 3.2 | 1.6 | 0.00 | 0.71 | 0.71 | 56 | 991.3 |
| 20260905193823 | 32 | 282 | 1.6 | 1.6 | 0.00 | 0.71 | 0.71 | 60 | 990.9 |
| 20260905193319 | 30 | 47 | 0.0 | 0.0 | 0.00 | 0.71 | 0.71 | 80 | 991.0 |
| 20260905192814 | 28 | 54 | 0.0 | 1.6 | 0.00 | 0.71 | 0.71 | 73 | 991.0 |
| 20260905192310 | 28 | 54 | 1.6 | 3.2 | 0.00 | 0.71 | 0.71 | 83 | 991.2 |
| 20260905191809 | 28 | 51 | 0.0 | 0.0 | 0.00 | 0.71 | 0.71 | 74 | 991.4 |
| 20260905191308 | 27 | 50 | 0.0 | 0.0 | 0.00 | 0.71 | 0.71 | 75 | 991.3 |
| 20260905190806 | 26 | 51 | 0.0 | 0.0 | 0.00 | 0.71 | 0.71 | 84 | 991.1 |
| 20260905190301 | 24 | 51 | 0.0 | 1.6 | 0.00 | 0.71 | 0.71 | 89 | 991.2 |
| 20260905185800 | 23 | 50 | 1.6 | 1.6 | 0.00 | 0.71 | 0.71 | 90 | 991.5 |
| 20260905185255 | 23 | 50 | 0.0 | 1.6 | 0.00 | 0.71 | 0.71 | 89 | 991.6 |
| 20260905184754 | 24 | 46 | 0.0 | 1.6 | 0.18 | 0.71 | 0.71 | 88 | 991.6 |
| 20260905184254 | 25 | 333 | 4.8 | 4.8 | 3.78 | 0.71 | 0.71 | 79 | 991.7 |
| 20260905183753 | 26 | 93 | 1.6 | 12.9 | 4.14 | 0.69 | 0.69 | 79 | 992.5 |
| 20260905183248 | 36 | 223 | 14.5 | 29.0 | 0.53 | 0.10 | 0.10 | 52 | 992.4 |
| 20260905182748 | 38 | 15 | 6.4 | 6.4 | 0.00 | 0.00 | 0.00 | 39 | 991.7 |
| 20260905182247 | 38 | 275 | 3.2 | 3.2 | 0.00 | 0.00 | 0.00 | 40 | 991.5 |
| 20260905181743 | 38 | 16 | 1.6 | 1.6 | 0.00 | 0.00 | 0.00 | 38 | 991.4 |
| 20260905181242 | 38 | 189 | 1.6 | 4.8 | 0.00 | 0.00 | 0.00 | 39 | 991.6 |
| 20260905180737 | 38 | 242 | 1.6 | 6.4 | 0.00 | 0.00 | 0.00 | 40 | 991.7 |
| 20260905180232 | 38 | 132 | 1.6 | 9.7 | 0.00 | 0.00 | 0.00 | 40 | 991.7 |
| 20260905175732 | 38 | 290 | 1.6 | 4.8 | 0.00 | 0.00 | 0.00 | 40 | 991.9 |
| 20260905175227 | 37 | 322 | 4.8 | 4.8 | 0.00 | 0.00 | 0.00 | 42 | 991.7 |
| 20260905174722 | 37 | 95 | 0.0 | 4.8 | 0.00 | 0.00 | 0.00 | 42 | 991.8 |
| 20260905174218 | 37 | 16 | 1.6 | 6.4 | 0.00 | 0.00 | 0.00 | 43 | 991.9 |
| 20260905173714 | 37 | 147 | 1.6 | 3.2 | 0.00 | 0.00 | 0.00 | 45 | 992.0 |
| 20260905173210 | 37 | 166 | 4.8 | 4.8 | 0.00 | 0.00 | 0.00 | 43 | 991.9 |
| 20260905172709 | 37 | 226 | 1.6 | 3.2 | 0.00 | 0.00 | 0.00 | 46 | 992.1 |
| 20260905172203 | 36 | 145 | 1.6 | 3.2 | 0.00 | 0.00 | 0.00 | 46 | 992.2 |
| 20260905171659 | 36 | 264 | 0.0 | 6.4 | 0.00 | 0.00 | 0.00 | 47 | 992.3 |
| 20260905171155 | 36 | 142 | 3.2 | 3.2 | 0.00 | 0.00 | 0.00 | 48 | 992.3 |
| 20260905170652 | 36 | 150 | 0.0 | 3.2 | 0.00 | 0.00 | 0.00 | 47 | 992.2 |
| 20260905170152 | 35 | 249 | 1.6 | 4.8 | 0.00 | 0.00 | 0.00 | 50 | 992.3 |
| 20260905165651 | 35 | 145 | 3.2 | 3.2 | 0.00 | 0.00 | 0.00 | 51 | 992.4 |
| 20260905165147 | 35 | 172 | 1.6 | 3.2 | 0.00 | 0.00 | 0.00 | 50 | 992.5 |
| 20260905164642 | 35 | 201 | 4.8 | 6.4 | 0.00 | 0.00 | 0.00 | 52 | 992.7 |
| 20260905164141 | 35 | 203 | 1.6 | 3.2 | 0.00 | 0.00 | 0.00 | 53 | 992.5 |
| 20260905163637 | 34 | 109 | 0.0 | 0.0 | 0.00 | 0.00 | 0.00 | 52 | 992.8 |
| 20260905163134 | 33 | 268 | 0.0 | 1.6 | 0.00 | 0.00 | 0.00 | 53 | 992.7 |
| 20260905162630 | 33 | 163 | 1.6 | 3.2 | 0.00 | 0.00 | 0.00 | 54 | 992.8 |
| 20260905162129 | 33 | 323 | 0.0 | 1.6 | 0.00 | 0.00 | 0.00 | 56 | 992.6 |
| 20260905161628 | 33 | 175 | 1.6 | 1.6 | 0.00 | 0.00 | 0.00 | 57 | 993.0 |
| 20260905161127 | 32 | 266 | 1.6 | 1.6 | 0.00 | 0.00 | 0.00 | 57 | 992.9 |
| 20260905160627 | 32 | 276 | 1.6 | 3.2 | 0.00 | 0.00 | 0.00 | 57 | 992.8 |
| 20260905160126 | 32 | 278 | 1.6 | 1.6 | 0.00 | 0.00 | 0.00 | 59 | 992.9 |
| 20260905155626 | 32 | 312 | 1.6 | 1.6 | 0.00 | 0.00 | 0.00 | 59 | 993.0 |
| 20260905155125 | 31 | 164 | 1.6 | 3.2 | 0.00 | 0.00 | 0.00 | 60 | 992.8 |